CAPE
0 0 14 462 79 1 10 110 72 58 97 45 270 303 465 559 298 103 374 314 441 748 860 737 1176 1180 845 1158 1581 1336 1166 866 1011 954 906 1364 1271 1356 1393 1156 1151 1062 1721 1766 1602 2033 1779 1795 1607
105 191 272 526 0 0 26 38 20 11 34 121 281 278 541 394 371 136 241 548 385 483 630 990 1002 1188 951 801 1160 1029 1166 714 503 886 1057 986 1010 762 400 1014 1345 1656 1464 1680 1513 1602 1796 1866 1674
252 1073 686 115 0 7 5 42 44 29 0 21 204 206 226 440 418 371 191 395 313 407 686 897 908 838 743 667 709 752 650 350 706 697 574 457 718 587 1008 1270 1618 1703 1448 1676 1666 1685 1687 1678 1827
724 1212 478 194 0 8 6 0 35 52 32 25 106 153 86 369 478 358 194 180 511 523 855 1215 1181 1022 1021 1014 973 1027 896 651 400 241 139 88 324 51 1052 1434 1676 1693 1448 1628 1641 1674 1561 1382 1608
996 356 65 43 56 25 14 29 136 65 18 11 199 197 241 471 378 314 191 492 529 668 775 810 619 613 852 1105 1145 784 569 531 90 7 3 23 86 257 1194 1302 1317 1310 1895 1556 1420 1615 1534 1593 1518
481 96 63 46 89 0 13 89 80 8 10 95 319 249 173 469 655 512 382 320 422 463 756 1067 1236 1289 1278 886 661 324 168 516 0 1 0 22 177 144 750 970 1461 1592 1622 1419 1327 1393 1276 1183 1076
220 181 62 89 100 38 82 189 45 13 28 30 428 262 134 285 527 659 522 477 242 174 142 189 704 988 826 695 779 432 64 338 0 0 0 22 75 152 708 1477 1539 1342 1306 1073 962 959 861 790 853
252 230 122 25 90 48 12 44 191 48 46 32 63 116 230 150 103 149 227 404 309 192 32 29 74 46 79 90 364 324 214 309 6 3 0 16 70 327 882 1516 1489 1251 1105 1213 1152 1052 1127 1111 1173
223 195 90 13 129 65 43 99 223 55 67 410 448 268 243 193 192 160 221 335 272 314 237 127 251 295 176 113 326 238 78 58 100 1 0 0 18 72 1208 1325 1528 1192 1245 1334 1437 1445 1658 1605 1029
158 216 187 152 186 245 175 291 192 52 81 134 386 294 229 109 150 269 236 276 300 357 360 422 352 371 461 254 181 107 62 11 0 0 9 7 23 118 280 1279 1353 1124 1140 1377 1374 1403 1736 1814 6
220 144 338 286 340 481 338 43 354 133 54 59 294 259 148 111 123 224 264 255 345 329 609 425 431 469 222 96 60 29 0 0 0 0 7 0 44 129 424 933 1136 904 552 485 940 532 15 3 1
270 448 392 494 523 381 422 340 198 167 65 35 82 175 123 49 36 79 154 192 236 400 544 319 459 236 31 7 23 4 0 0 0 0 0 0 26 144 385 380 637 394 303 671 550 1 9 13 351
317 521 628 600 487 499 425 371 255 133 31 10 113 137 67 38 61 61 156 293 389 443 450 387 236 60 0 0 2 1 0 0 0 0 0 1 78 275 342 253 311 301 816 773 605 57 255 291 98
44 487 618 699 731 572 473 467 264 157 102 92 381 273 172 145 126 107 84 149 211 446 458 517 170 0 0 0 0 0 0 0 12 35 116 7 49 267 319 238 370 354 483 592 740 586 27 34 57
118 333 99 597 669 601 530 404 358 218 9 94 93 205 245 96 123 112 64 132 237 241 408 547 238 0 0 0 0 0 0 0 0 2 81 36 26 183 814 180 283 633 883 1309 178 1 0 0 0
233 9 85 691 747 680 319 119 360 176 26 2 25 19 86 67 62 20 31 11 4 46 92 385 375 174 30 0 0 0 0 51 30 26 70 108 417 707 671 795 696 862 882 712 487 6 0 0 0
28 57 159 875 831 685 290 539 374 3 0 0 43 10 15 46 45 34 15 0 0 0 35 67 238 156 2 94 21 1 45 67 44 79 143 283 882 516 702 1002 1180 902 727 123 223 16 0 44 0
72 15 0 504 895 784 575 302 47 22 52 42 22 10 8 40 24 29 68 13 0 0 20 100 179 109 193 147 96 108 196 68 37 293 407 532 404 879 816 1298 1592 1213 1163 1180 431 82 103 226 9
83 9 0 15 810 620 265 11 0 117 305 208 197 46 5 41 30 25 72 24 0 23 24 81 98 72 59 51 69 232 158 66 162 293 600 1265 1298 906 1001 1021 1156 1221 889 1345 770 754 625 345 16
24 0 0 113 301 313 269 51 220 208 55 40 52 25 55 26 50 48 102 87 68 0 0 43 58 29 0 15 2 229 16 5 64 332 239 776 1369 935 856 794 1605 1032 251 197 1003 983 1138 349 193
0 0 9 0 324 382 159 20 0 2 107 73 0 70 60 34 13 22 199 243 134 71 2 41 19 4 0 15 73 380 0 24 234 389 281 881 1103 757 535 1276 1261 848 84 407 1013 1385 598 652 2
0 0 0 0 0 152 85 27 2 1 25 205 97 0 25 37 55 84 74 320 176 31 3 111 152 38 0 5 204 94 65 17 89 231 567 797 1304 706 662 1464 1255 310 1362 1035 1165 1521 1360 976 683
0 0 0 0 0 28 4 0 0 16 5 28 208 36 75 27 89 135 1 346 220 37 0 0 266 204 7 0 222 190 1 5 136 751 837 1086 1423 949 686 939 1370 983 1117 1424 1714 1298 807 1119 878
0 0 0 0 0 0 0 0 5 24 0 0 27 234 163 63 181 148 0 60 304 178 197 227 98 0 0 92 382 205 59 332 294 535 537 669 342 948 801 855 1171 1211 1453 1511 1055 1439 1077 1586 1403
0 0 0 0 7 0 10 0 0 3 12 13 4 406 172 171 203 107 16 38 220 288 601 369 132 0 0 450 423 346 352 581 450 589 103 207 70 640 1021 1123 1254 1343 1249 1607 1102 1119 1345 1398 950
0 0 0 0 0 0 27 13 0 0 72 20 43 152 481 230 235 223 53 35 104 199 376 450 321 81 0 564 238 508 648 848 430 445 605 269 5 478 566 1312 1543 1168 1486 1322 1276 1022 1321 1231 1197
0 0 0 0 0 0 45 20 120 41 10 0 172 242 660 295 417 411 145 54 27 27 159 379 320 250 61 47 254 227 558 696 671 266 1028 893 923 672 427 620 282 977 1399 1377 1514 1020 972 1140 1251
0 0 0 0 0 0 4 0 45 101 0 59 138 372 839 383 423 494 376 185 184 72 43 342 284 216 247 26 322 229 395 515 483 853 1117 1020 923 797 615 514 609 535 914 1648 1607 1382 1058 836 881
0 0 0 0 0 0 0 0 134 24 0 51 7 259 931 710 438 596 522 404 388 311 308 334 315 327 355 187 171 464 733 1123 992 757 1199 1361 1308 690 579 601 475 42 617 1443 1304 1097 1183 1438 1005
0 0 0 0 0 0 0 0 84 110 7 16 78 149 741 831 516 347 664 551 639 513 472 746 586 641 565 627 516 534 829 1117 1324 1171 910 1112 1413 1079 1400 1128 964 1136 1481 1449 1268 1290 1091 1052 1206
CIN
0 0 -260 -67 -49 -14 -41 -12 -20 -22 -29 -28 -34 -75 -49 -39 -31 -40 -65 -74 -72 -47 -22 -29 -7 -5 -9 -3 -0 -0 -2 -5 -2 -7 -9 -1 -2 -1 -1 -10 -3 -10 -0 0 -0 -0 0 -1 -18
-186 -149 -132 -7 0 0 -20 -73 -40 -46 -18 -53 -42 -46 -61 -60 -83 -115 -81 -45 -97 -81 -53 -6 -7 -6 -9 -10 -2 -2 -2 -4 -5 -3 -4 -4 -4 -16 -16 -10 -2 -0 0 -0 -1 0 0 -1 -1
-204 -63 -14 -29 0 -26 -36 -65 -54 -25 -2 -6 -20 -65 -58 -10 -21 -45 -87 -90 -100 -89 -47 -14 -14 -16 -14 -22 -16 -4 -6 -17 -2 -3 -27 -41 -20 -17 -11 -2 0 -0 -1 0 -0 -0 -0 -3 0
-86 -30 -37 -6 0 -29 -78 -2 -112 -16 -20 -12 -50 -97 -98 -18 -43 -82 -76 -128 -83 -75 -28 -1 -0 -5 -8 -7 -5 -1 -1 -7 -30 -63 -79 -79 -63 -79 -2 -0 -0 -0 -0 -1 -0 0 0 -9 -4
-52 -39 -23 -15 -11 -64 -115 -115 -76 -24 -11 -20 -26 -106 -54 -27 -71 -60 -75 -65 -93 -62 -48 -47 -64 -51 -18 -7 -6 -16 -15 -26 -86 -124 -139 -105 -101 -46 -3 -2 -3 -2 -1 -0 0 0 0 -6 -9
-15 -28 -9 -15 -13 -29 -74 -50 -129 -26 -26 -20 -42 -83 -80 -22 -25 -43 -62 -66 -78 -86 -50 -25 -18 -2 -9 -21 -47 -69 -54 -40 0 -78 -7 -114 -65 -104 -10 -3 -0 -0 -0 0 -0 -3 -11 -32 -48
-35 -12 -12 -10 -11 -47 -91 -85 -12 -17 -15 -12 -32 -63 -107 -13 -15 -30 -35 -44 -83 -132 -152 -142 -53 -29 -24 -23 -5 -82 -101 -36 0 0 0 -136 -111 -79 -5 -0 -0 -0 0 -2 -26 -26 -46 -62 -51
-36 -14 -23 -47 -17 -24 -69 -117 -40 -8 -17 -7 -86 -101 -67 -37 -47 -27 -27 -33 -60 -85 -151 -164 -147 -136 -122 -105 -24 -29 -24 -32 -144 -188 -9 -176 -87 -35 -5 -0 -1 -4 -20 -11 -35 -48 -32 -26 -9
-67 -27 -28 -78 -18 -106 -100 -46 -15 -23 -28 -29 -39 -82 -76 -22 -25 -41 -26 -23 -36 -42 -63 -96 -79 -66 -79 -89 -10 -21 -62 -64 -68 -34 0 0 -107 -83 -4 -6 -3 -18 -29 -28 -31 -16 -6 -11 -21
-24 -11 -31 -61 -23 -26 -49 -47 -48 -28 -18 -75 -70 -76 -65 -41 -23 -31 -37 -32 -38 -30 -36 -35 -47 -40 -27 -22 -48 -34 -71 -34 0 0 -183 -163 -123 -107 -33 -9 -14 -27 -41 -37 -38 -37 -24 -4 -82
-10 -21 -18 -19 -16 -6 -12 -60 -15 -22 -35 -81 -47 -56 -75 -28 -38 -40 -42 -40 -56 -45 -18 -33 -25 -16 -27 -59 -42 -36 -19 0 0 0 -176 -48 -174 -136 -49 -7 -27 -57 -74 -59 -77 -121 -25 -29 -23
-9 -16 -25 -34 -31 -16 -7 -10 -15 -18 -47 -58 -93 -90 -74 -80 -73 -26 -62 -52 -48 -37 -40 -47 -20 -37 -84 -86 -96 -133 0 0 -66 -44 0 -44 -164 -76 -39 -35 -45 -62 -71 -65 -122 -19 -132 -201 -89
-12 -9 -16 -43 -51 -30 -9 -6 -10 -23 -60 -61 -55 -49 -119 -116 -69 -47 -43 -42 -32 -33 -32 -29 -42 -92 0 0 -97 -135 0 0 0 0 0 -84 -126 -60 -48 -41 -49 -60 -38 -65 -80 -145 -155 -198 -144
-13 -4 -14 -23 -29 -47 -25 -2 -11 -49 -62 -20 -32 -36 -51 -33 -36 -41 -54 -75 -62 -39 -41 -23 -43 0 0 0 0 0 0 0 -58 -61 -79 -50 -73 -79 -32 -25 -20 -23 -21 -57 -92 -139 -69 -151 -47
-23 -38 -148 -50 -50 -44 -34 -13 -25 -61 -124 -52 -11 -19 -22 -33 -46 -64 -82 -63 -48 -49 -39 -17 -34 0 0 0 0 0 0 0 0 -109 -60 -91 -100 -84 -34 -27 -18 -23 -27 -40 -159 -28 0 0 0
-8 -90 -90 -36 -55 -66 -50 -47 -69 -102 -90 -25 -33 -11 -28 -13 -60 -74 -58 -52 -71 -91 -62 -21 -21 -27 -49 0 0 0 0 -51 -69 -95 -71 -64 -61 -25 -11 -17 -16 -15 -46 -55 -88 -61 0 0 0
-83 -50 -44 -35 -64 -109 -86 -29 -78 -94 0 0 -75 -13 -23 -14 -13 -51 -53 0 0 0 -53 -63 -24 -20 -6 -31 -17 -25 -52 -51 -99 -114 -101 -69 -12 -14 -17 -20 -18 -18 -44 -94 -86 -59 0 -115 0
-35 -28 -1 -13 -53 -66 -33 -55 -8 -91 -80 -74 -64 -14 -17 -31 -33 -70 -85 -135 0 0 -70 -34 -18 -15 -9 -21 -21 -40 -20 -67 -90 -59 -47 -31 -20 -14 -20 -21 -19 -21 -17 -34 -67 -147 -111 -97 -48
-78 -33 0 -1 -28 -23 -114 -205 0 -87 -43 -50 -79 -40 -31 -39 -46 -49 -96 -125 -1 -113 -105 -43 -26 -24 -48 -44 -56 -15 -51 -79 -89 -57 -28 -9 -11 -17 -22 -21 -30 -30 -33 -32 -53 -68 -50 -96 -316
-25 0 -2 -4 -20 -26 -135 -165 -187 -154 -127 -52 -84 -34 -20 -36 -56 -40 -104 -158 -159 0 0 -61 -48 -72 -17 -78 -85 -27 -68 -7 -62 -61 -31 -17 -9 -21 -24 -21 -23 -43 -68 -60 -37 -26 -26 -112 -200
-2 -1 -4 0 -13 -70 -99 -124 0 -115 -170 -127 0 -57 -73 -41 -73 -57 -110 -159 -165 -154 -27 -89 -68 -54 0 -79 -47 -31 -8 -105 -58 -37 -50 -25 -20 -31 -37 -21 -43 -49 -63 -52 -29 -18 -29 -31 -84
0 -0 0 0 0 -43 -108 -58 -126 -62 -296 -171 -173 0 -80 -47 -62 -54 -75 -130 -187 -202 -50 -95 -59 -29 0 -14 -33 -43 -86 -103 -86 -36 -24 -21 -19 -32 -34 -22 -31 -95 -32 -51 -21 -12 -22 -27 -49
0 0 0 0 0 -40 -134 0 0 -270 -265 -251 -169 -204 -98 -128 -102 -47 -53 -139 -190 -219 -4 0 -74 -62 -17 0 -44 -37 -11 -74 -52 -34 -22 -18 -16 -24 -26 -31 -24 -35 -30 -12 -11 -14 -34 -27 -24
0 0 0 0 0 0 0 0 -66 -85 0 0 -150 -122 -125 -106 -50 -62 0 -112 -166 -207 -203 -153 -126 0 0 -53 -39 -51 -67 -42 -66 -43 -25 -36 -53 -33 -17 -18 -22 -32 -21 -11 -27 -25 -31 -26 -28
0 0 0 0 -3 -5 -144 0 0 -48 -111 -177 -8 -111 -102 -120 -93 -81 -147 -187 -157 -166 -169 -139 -135 0 0 -32 -29 -50 -75 -44 -50 -42 -92 -66 -96 -35 -16 -13 -11 -9 -10 -10 -19 -13 -14 -11 -27
0 0 0 0 0 0 -113 -41 0 0 -200 -204 -186 -125 -95 -104 -114 -111 -147 -194 -190 -188 -184 -166 -134 -124 0 -49 -57 -44 -53 -43 -58 -65 -58 -54 -59 -35 -35 -26 -14 -18 -11 -10 -17 -17 -13 -10 -13
0 0 0 0 0 0 -17 -32 -104 -238 -113 0 -213 -173 -70 -88 -133 -130 -152 -165 -244 -246 -207 -200 -163 -135 -135 -123 -85 -93 -71 -50 -47 -54 -36 -31 -32 -38 -47 -32 -76 -42 -18 -9 -17 -26 -18 -18 -17
0 0 0 0 0 0 -3 -3 -32 -108 0 -259 -43 -120 -66 -93 -112 -111 -155 -172 -198 -245 -254 -211 -185 -168 -139 -161 -100 -118 -114 -85 -80 -43 -19 -18 -20 -26 -42 -54 -62 -72 -52 -10 -8 -21 -24 -27 -28
0 0 0 0 0 0 0 0 -39 -62 0 -109 -202 -169 -57 -90 -121 -149 -143 -168 -160 -187 -183 -196 -189 -173 -163 -163 -157 -101 -80 -58 -60 -59 -21 -16 -12 -26 -33 -52 -73 -133 -65 -12 -12 -30 -25 -24 -32
0 0 0 0 0 0 0 0 -47 -80 -89 -83 -58 -78 -73 -73 -95 -98 -144 -135 -121 -131 -127 -145 -166 -160 -154 -124 -138 -122 -98 -59 -48 -44 -45 -20 -10 -13 -13 -28 -37 -31 -13 -9 -14 -26 -29 -22 -22
Wind_Speed
16 17 16 13 15 10 11 8 18 20 20 19 19 19 19 17 13 12 15 16 15 14 13 11 11 9 8 11 13 14 16 16 17 17 16 19 20 20 18 17 16 8 7 18 18 14 15 15 17
16 16 14 7 17 16 4 13 19 21 20 20 22 20 21 20 17 14 14 15 16 15 11 10 9 9 9 10 12 13 13 15 15 14 13 15 18 15 18 15 12 10 11 19 13 14 15 17 16
15 15 13 16 16 12 11 11 10 22 19 19 21 21 18 18 18 11 17 16 17 13 10 8 8 9 9 10 9 11 11 10 11 12 11 12 13 13 15 10 10 14 17 9 10 14 15 17 17
13 14 15 18 15 11 16 16 12 21 19 18 17 20 20 14 13 12 18 18 14 12 10 10 9 7 8 8 8 8 9 9 10 11 10 11 12 11 12 10 14 15 11 9 11 15 17 18 17
16 19 20 23 18 12 20 21 21 17 15 17 17 17 19 17 19 18 16 13 13 10 10 10 9 6 4 7 5 7 7 8 9 10 9 12 12 14 11 11 14 14 10 9 15 16 17 18 16
20 19 22 22 20 20 8 14 15 17 17 19 19 18 17 19 18 17 16 12 11 12 11 12 12 4 4 5 5 6 6 7 7 8 10 13 16 15 20 13 14 15 15 15 5 19 18 16 16
20 18 21 22 20 14 11 13 16 16 18 19 16 16 15 16 17 17 16 13 10 10 13 13 13 12 7 6 6 7 6 7 9 7 11 15 10 21 19 17 16 17 17 17 19 19 17 16 14
19 19 22 23 21 19 17 15 14 17 17 18 16 15 14 15 17 17 17 13 12 11 10 11 11 12 13 6 8 7 6 4 10 6 13 15 17 23 21 19 19 19 20 19 19 18 16 14 13
21 21 23 22 22 13 5 12 18 18 16 20 21 18 19 18 18 17 15 12 12 13 13 13 13 12 12 10 7 5 5 5 7 7 10 17 22 25 22 22 22 21 20 19 18 17 16 13 13
13 19 23 20 23 15 10 6 21 17 14 16 19 22 22 20 19 17 18 16 15 15 14 13 13 13 13 10 8 6 6 3 2 15 16 17 19 24 23 23 23 21 20 19 18 17 16 13 14
18 22 23 25 23 19 16 14 14 14 16 13 14 18 18 18 19 17 16 17 15 16 13 14 14 13 13 12 12 6 3 8 24 17 19 16 23 23 24 22 22 22 20 18 16 16 14 11 12
15 17 21 26 25 20 20 11 11 14 11 11 14 15 17 17 17 16 16 16 15 14 13 14 13 13 14 17 18 16 19 22 25 23 17 23 23 22 21 21 23 22 19 15 17 14 12 16 6
17 18 22 20 23 18 15 16 15 12 12 10 10 12 14 16 16 14 15 15 16 13 11 11 12 12 15 19 19 24 27 28 27 24 26 27 23 24 22 23 23 22 18 19 16 15 14 10 10
21 22 24 17 20 21 18 14 13 13 16 17 15 14 14 15 16 15 15 16 15 14 13 13 12 12 16 21 22 26 28 26 23 23 26 27 24 26 22 22 13 21 19 13 17 15 11 11 11
21 24 24 5 15 19 18 16 13 7 6 11 11 13 13 14 15 15 16 18 15 12 13 13 14 13 19 22 24 27 28 27 27 28 23 28 24 25 22 16 16 21 19 14 13 14 13 17 11
24 21 24 10 12 16 16 18 10 8 8 18 15 11 13 15 18 19 15 15 14 13 14 14 13 17 18 16 26 27 28 27 28 28 26 27 26 25 17 16 7 15 11 17 16 15 11 11 11
21 22 3 11 11 15 13 17 8 7 2 10 13 9 11 14 13 15 15 15 14 14 15 16 18 17 19 18 19 24 24 25 24 24 25 23 22 20 20 18 19 17 10 17 15 14 3 21 10
7 16 21 17 10 12 8 19 31 7 8 26 23 5 11 12 12 14 14 14 16 16 16 19 21 17 13 10 5 1 2 13 28 25 25 25 20 20 20 17 15 13 15 15 17 15 17 11 16
17 16 20 21 13 16 20 28 29 14 5 20 24 1 11 13 11 13 14 16 17 16 18 21 21 20 16 15 6 7 4 3 3 23 24 14 19 17 17 18 18 17 16 13 18 14 13 13 12
15 15 18 17 12 16 17 23 18 14 8 9 10 27 10 11 12 12 15 17 17 18 19 20 21 22 24 23 21 18 6 4 4 11 22 19 16 12 15 16 15 16 19 17 15 14 12 12 13
14 15 24 25 19 21 21 21 22 10 11 8 17 23 12 12 14 14 16 17 17 19 19 20 20 22 23 27 21 7 10 18 15 8 27 23 15 12 12 15 14 16 16 15 16 15 15 16 4
13 16 22 24 26 21 25 30 1 7 9 11 19 16 17 13 12 15 15 16 16 18 19 19 21 23 26 26 23 2 7 22 24 13 8 25 4 10 10 9 7 17 18 11 17 14 16 14 15
18 22 23 21 23 20 24 22 7 6 9 13 17 20 21 16 21 16 18 17 16 17 18 20 20 21 24 24 21 19 19 21 13 20 3 12 14 8 8 22 22 19 20 18 16 16 17 16 15
14 16 17 17 12 12 6 12 7 6 7 9 14 19 19 22 17 15 21 19 17 16 16 18 19 22 23 21 21 26 26 23 23 8 4 7 15 19 8 6 15 20 21 20 19 18 17 16 18
19 9 10 14 12 4 21 14 1 7 15 14 15 18 19 23 22 18 19 23 20 19 17 15 18 20 24 19 22 28 29 27 27 16 23 12 17 22 23 8 6 7 21 21 20 19 16 16 18
13 14 11 31 29 28 16 19 5 9 13 23 24 25 16 17 22 26 21 18 19 20 19 16 18 19 22 20 23 27 28 25 27 12 19 23 18 23 26 8 5 7 11 21 21 21 19 18 17
7 5 13 17 30 32 11 14 23 14 16 15 17 15 19 16 17 23 23 20 20 20 19 19 18 19 21 22 21 27 27 22 25 24 25 29 19 18 12 10 18 25 23 16 20 22 21 20 19
5 4 23 23 19 25 22 29 14 13 11 11 12 11 19 18 17 21 21 22 20 21 21 20 20 20 21 19 19 23 29 26 18 27 28 16 14 12 2 13 7 6 20 15 6 22 23 22 21
7 3 9 7 15 22 31 25 12 8 10 13 9 10 16 17 17 19 21 22 21 20 20 20 21 20 20 18 17 16 23 26 25 21 30 24 21 10 7 3 9 11 2 3 11 15 12 24 24
30 14 16 17 16 13 14 11 13 8 6 6 6 11 10 10 16 17 20 19 20 21 20 19 20 21 18 18 16 15 16 18 20 21 13 4 21 19 15 2 2 10 11 12 15 12 24 26 22
Wind_Direction
170 133 155 210 297 228 279 250 46 31 45 17 27 34 35 2 31 34 72 88 89 91 94 88 71 54 42 60 65 61 64 64 65 64 60 77 100 111 92 88 84 316 323 97 87 50 49 48 73
183 149 147 347 33 5 240 204 18 28 49 44 52 44 29 29 33 62 69 85 89 94 89 76 71 59 56 55 63 62 55 65 61 54 42 59 90 70 86 67 57 30 43 100 42 44 58 70 56
198 184 149 6 346 261 240 225 280 29 8 31 56 36 24 56 59 29 93 88 94 91 81 72 64 57 54 59 52 56 55 41 39 37 23 21 47 41 61 16 271 243 212 352 5 44 48 71 73
226 290 258 338 352 113 193 211 218 3 21 27 43 28 34 86 30 61 105 94 80 87 82 74 63 56 53 46 43 43 39 30 30 35 19 11 15 339 22 295 237 235 265 301 18 53 62 82 78
240 287 322 310 350 47 223 235 255 21 52 28 39 32 34 39 76 81 85 84 79 72 82 78 79 57 358 28 23 28 23 25 40 53 18 329 312 278 9 280 241 237 267 291 47 63 73 92 116
291 331 321 317 351 339 273 194 210 4 32 41 49 37 37 77 78 86 90 85 75 78 78 80 81 356 12 33 35 8 358 1 17 15 12 322 288 266 227 263 239 235 228 215 169 122 102 139 151
288 332 324 317 330 10 177 218 326 15 24 20 68 32 67 75 87 89 91 86 86 85 93 96 84 83 20 29 354 354 342 328 321 342 332 279 308 192 210 234 230 226 209 208 183 161 146 164 168
302 316 318 317 319 331 313 49 229 16 31 49 64 49 74 83 82 90 95 84 79 91 97 100 99 101 103 357 50 334 359 325 308 354 284 273 263 210 215 224 216 209 192 188 182 167 174 182 210
289 312 310 317 316 6 282 38 343 4 9 9 20 66 88 94 88 90 85 85 84 90 97 102 107 96 94 73 40 19 59 53 316 327 283 260 222 197 222 211 197 189 187 189 178 201 225 162 45
50 337 320 342 330 347 32 35 321 348 354 15 46 67 88 94 102 98 106 105 104 110 106 101 101 99 96 87 55 346 305 351 80 268 256 242 231 210 218 202 191 182 184 188 189 189 196 153 84
19 341 315 316 332 336 348 354 343 344 328 34 74 86 82 99 107 105 106 113 111 117 106 114 112 99 100 89 86 12 345 105 214 247 237 235 216 217 211 211 185 180 183 197 213 209 167 168 106
4 14 320 337 337 347 311 12 14 338 2 64 82 99 94 100 115 108 114 113 113 114 112 118 107 105 107 113 116 111 127 140 207 218 229 218 208 219 221 217 189 185 191 213 184 213 236 295 209
354 353 318 21 20 14 356 328 332 338 34 51 89 94 92 110 117 108 109 107 117 115 107 112 110 110 119 131 123 136 151 174 184 201 203 178 211 215 230 215 181 199 212 168 126 252 271 234 278
331 324 302 23 21 26 337 334 350 340 320 314 107 108 100 115 118 104 105 116 121 120 118 121 117 110 125 141 142 154 171 195 210 206 198 184 197 196 216 194 260 188 223 248 145 188 162 171 238
336 322 278 49 34 22 23 332 341 36 81 117 114 111 107 114 110 113 120 122 110 103 108 120 125 121 134 144 150 153 162 181 188 191 203 186 202 203 211 243 247 184 211 250 322 275 263 324 271
312 330 330 65 80 40 38 349 34 66 121 164 282 97 109 118 130 134 106 99 101 97 112 118 119 129 126 121 145 150 160 182 186 194 202 190 198 203 239 246 228 105 312 213 226 242 261 293 286
257 247 226 25 93 46 65 41 51 70 95 135 302 90 91 101 94 101 107 109 104 103 106 116 123 124 126 120 123 142 152 168 210 215 205 213 190 227 228 235 229 131 313 239 263 228 322 34 195
198 263 295 9 110 46 76 338 318 94 304 238 224 93 111 107 103 104 103 89 101 102 111 119 128 122 118 104 97 330 360 113 190 203 209 202 229 225 229 248 209 256 251 266 187 243 7 220 337
211 242 266 343 93 25 18 357 51 140 52 169 189 46 132 122 100 100 101 104 102 103 114 126 125 125 124 120 101 274 107 91 5 232 222 243 232 242 247 248 249 251 251 302 179 166 278 268 223
206 226 256 8 64 20 21 14 61 84 91 146 140 180 142 132 127 105 112 110 111 111 118 123 127 133 142 144 143 237 110 109 311 262 227 234 244 268 261 259 277 259 242 260 273 270 287 280 232
210 230 306 298 346 352 340 10 11 75 156 140 172 179 160 151 141 131 127 119 116 119 123 129 134 140 144 155 181 273 253 240 260 276 182 228 252 283 276 277 286 257 268 285 255 256 345 21 336
202 233 294 300 293 338 359 307 42 107 117 129 161 165 157 161 155 143 138 129 122 125 126 128 134 140 151 153 155 246 257 158 227 261 291 180 27 297 292 319 236 261 240 46 199 321 344 286 294
232 252 272 262 284 354 340 6 177 113 187 171 159 161 164 155 156 153 150 140 131 128 128 135 136 138 147 151 152 145 144 150 266 251 325 275 271 310 315 245 246 252 239 262 273 317 309 258 264
206 226 240 236 271 264 339 18 65 171 174 49 153 164 163 164 166 159 153 145 141 134 131 134 141 148 151 148 150 159 164 160 229 292 337 296 261 256 304 359 291 252 242 256 260 283 294 214 239
221 186 199 242 19 27 10 26 186 206 192 169 150 156 160 167 165 162 155 154 148 146 137 136 142 149 156 149 150 166 174 174 179 262 231 273 260 247 248 329 4 9 215 229 238 259 191 182 215
190 198 357 295 323 279 24 358 142 131 351 311 254 206 150 150 158 162 161 159 154 150 147 141 144 148 157 154 157 166 173 170 185 260 254 222 259 253 241 317 353 357 305 203 227 213 213 197 204
145 153 207 240 271 311 21 55 22 40 39 78 177 177 169 148 146 156 159 159 160 156 152 148 147 147 155 161 162 173 176 166 177 177 186 226 274 275 292 307 285 257 264 167 194 243 236 252 236
128 86 333 332 335 322 335 326 8 15 31 53 299 156 162 155 152 160 161 163 157 160 156 153 152 150 153 156 161 171 184 180 172 195 243 277 287 291 72 295 336 338 276 259 19 280 235 245 231
15 1 356 0 350 329 307 328 10 41 31 28 123 123 150 156 158 162 167 167 163 159 157 159 158 156 155 154 157 158 171 182 182 178 242 261 269 292 297 308 160 316 16 32 328 316 306 227 237
303 318 325 328 331 340 334 339 15 45 48 52 107 145 125 151 164 165 168 169 166 163 163 160 162 161 160 160 158 159 157 163 169 175 171 246 271 276 285 300 309 313 313 313 310 320 224 237 211